UAL1392 KIAD-KBOS

Flight info

Callsign UAL1392
Flight time 1h 12m
Altitude 37000
Route JCOBY4 SWANN BROSS Q419 JFK ROBUC3
Aircraft B738/M-SDE2E3FGHIRWXY/LB1

Departure

Time 2026-05-04 23:34
Airport Washington Dulles International Airport (KIAD)

Arrival

Time 2026-05-05 00:46
Airport Boston Logan International Airport (KBOS)
Time Latitude Longitude Altitude Speed Heading
2026-05-04 23:04 38.94927 -77.44151 300 ft 0 kts 143°
2026-05-04 23:18 38.94933 -77.44157 302 ft 2 kts 147°
2026-05-04 23:18 38.94950 -77.44167 301 ft 3 kts 168°
2026-05-04 23:19 38.94969 -77.44170 301 ft 2 kts 180°
2026-05-04 23:19 38.94975 -77.44170 301 ft 0 kts 180°
2026-05-04 23:19 38.95010 -77.44163 299 ft 0 kts 270°
2026-05-04 23:24 38.95011 -77.44187 299 ft 6 kts 270°
2026-05-04 23:25 38.95011 -77.44246 299 ft 7 kts 273°
2026-05-04 23:25 38.95014 -77.44308 299 ft 7 kts 272°
2026-05-04 23:25 38.95014 -77.44369 301 ft 7 kts 270°
2026-05-04 23:25 38.95014 -77.44429 303 ft 7 kts 270°
2026-05-04 23:26 38.95014 -77.44487 301 ft 7 kts 270°
2026-05-04 23:26 38.95014 -77.44545 303 ft 6 kts 271°
2026-05-04 23:26 38.95015 -77.44601 303 ft 6 kts 271°
2026-05-04 23:26 38.95015 -77.44656 302 ft 6 kts 271°
2026-05-04 23:27 38.95016 -77.44715 299 ft 8 kts 271°
2026-05-04 23:27 38.95018 -77.44851 299 ft 15 kts 270°
2026-05-04 23:27 38.95019 -77.44985 299 ft 15 kts 270°
2026-05-04 23:27 38.95020 -77.45114 299 ft 14 kts 270°
2026-05-04 23:28 38.95021 -77.45237 299 ft 13 kts 270°
2026-05-04 23:28 38.95022 -77.45355 299 ft 13 kts 270°
2026-05-04 23:28 38.95023 -77.45469 299 ft 13 kts 270°
2026-05-04 23:28 38.95019 -77.45579 299 ft 12 kts 243°
2026-05-04 23:29 38.94939 -77.45605 301 ft 12 kts 183°
2026-05-04 23:29 38.94855 -77.45605 299 ft 12 kts 181°
2026-05-04 23:29 38.94774 -77.45607 302 ft 12 kts 181°
2026-05-04 23:29 38.94694 -77.45609 302 ft 11 kts 180°
2026-05-04 23:30 38.94617 -77.45610 301 ft 11 kts 180°
2026-05-04 23:30 38.94542 -77.45610 300 ft 11 kts 180°
2026-05-04 23:30 38.94456 -77.45611 302 ft 18 kts 180°
2026-05-04 23:30 38.94325 -77.45616 300 ft 18 kts 182°
2026-05-04 23:31 38.94199 -77.45616 300 ft 18 kts 179°
2026-05-04 23:31 38.94077 -77.45618 302 ft 17 kts 181°
2026-05-04 23:31 38.93971 -77.45620 301 ft 15 kts 179°
2026-05-04 23:31 38.93872 -77.45619 300 ft 14 kts 180°
2026-05-04 23:32 38.93777 -77.45621 301 ft 13 kts 181°
2026-05-04 23:32 38.93689 -77.45633 300 ft 13 kts 199°
2026-05-04 23:32 38.93603 -77.45659 299 ft 13 kts 165°
2026-05-04 23:32 38.93558 -77.45571 302 ft 12 kts 120°
2026-05-04 23:33 38.93483 -77.45546 299 ft 12 kts 197°
2026-05-04 23:33 38.93406 -77.45589 297 ft 12 kts 208°
2026-05-04 23:33 38.93385 -77.45678 300 ft 9 kts 282°
2026-05-04 23:33 38.93389 -77.45692 301 ft 2 kts 290°
2026-05-04 23:34 38.93461 -77.45936 299 ft 72 kts 291°
2026-05-04 23:34 38.93738 -77.46887 303 ft 153 kts 289°
2026-05-04 23:34 38.94207 -77.48406 533 ft 205 kts 289°
2026-05-04 23:34 38.94821 -77.50158 1183 ft 223 kts 294°
2026-05-04 23:35 38.95788 -77.51764 1974 ft 236 kts 311°
2026-05-04 23:35 38.96958 -77.53292 2625 ft 242 kts 310°
2026-05-04 23:35 38.98141 -77.54854 2948 ft 244 kts 310°
2026-05-04 23:35 38.99321 -77.56410 2989 ft 243 kts 310°
2026-05-04 23:36 39.00505 -77.57979 3002 ft 245 kts 310°
2026-05-04 23:36 39.01695 -77.59554 3017 ft 246 kts 310°
2026-05-04 23:36 39.02895 -77.61137 3020 ft 248 kts 310°
2026-05-04 23:36 39.04098 -77.62737 3004 ft 248 kts 310°
2026-05-04 23:37 39.05560 -77.63924 3003 ft 264 kts 344°
2026-05-04 23:37 39.07454 -77.63797 3008 ft 284 kts 22°
2026-05-04 23:37 39.08951 -77.62246 3497 ft 284 kts 59°
2026-05-04 23:37 39.09486 -77.59854 4403 ft 279 kts 96°
2026-05-04 23:38 39.09343 -77.57349 5202 ft 289 kts 85°
2026-05-04 23:38 39.09907 -77.54827 6067 ft 296 kts 71°
2026-05-04 23:38 39.10576 -77.52316 6985 ft 299 kts 72°
2026-05-04 23:38 39.11222 -77.49744 7799 ft 305 kts 71°
2026-05-04 23:39 39.11866 -77.47127 8693 ft 308 kts 71°
2026-05-04 23:39 39.12514 -77.44486 9557 ft 313 kts 71°
2026-05-04 23:39 39.13176 -77.41785 10329 ft 320 kts 70°
2026-05-04 23:39 39.13869 -77.38964 10624 ft 344 kts 70°
2026-05-04 23:40 39.14618 -77.35915 10828 ft 369 kts 70°
2026-05-04 23:40 39.15285 -77.32645 11233 ft 386 kts 80°
2026-05-04 23:40 39.15474 -77.29167 11942 ft 392 kts 91°
2026-05-04 23:40 39.15163 -77.25664 12732 ft 396 kts 102°
2026-05-04 23:41 39.14550 -77.22226 13462 ft 401 kts 104°
2026-05-04 23:41 39.13903 -77.18710 14157 ft 406 kts 103°
2026-05-04 23:41 39.13283 -77.15168 14953 ft 405 kts 102°
2026-05-04 23:41 39.12711 -77.11615 15780 ft 405 kts 102°
2026-05-04 23:42 39.12155 -77.08058 16552 ft 406 kts 102°
2026-05-04 23:42 39.11592 -77.04484 17291 ft 408 kts 102°
2026-05-04 23:42 39.11024 -77.00905 18021 ft 410 kts 102°
2026-05-04 23:42 39.10676 -76.97253 18632 ft 413 kts 92°
2026-05-04 23:43 39.10726 -76.93539 19204 ft 417 kts 88°
2026-05-04 23:43 39.10849 -76.89795 19771 ft 421 kts 87°
2026-05-04 23:43 39.10983 -76.86016 20327 ft 424 kts 87°
2026-05-04 23:43 39.11107 -76.82208 20879 ft 427 kts 88°
2026-05-04 23:44 39.11218 -76.78375 21420 ft 430 kts 88°
2026-05-04 23:44 39.11319 -76.74515 21955 ft 434 kts 88°
2026-05-04 23:44 39.11414 -76.70614 22486 ft 437 kts 88°
2026-05-04 23:44 39.11506 -76.66695 22967 ft 440 kts 88°
2026-05-04 23:45 39.11599 -76.62729 23466 ft 444 kts 88°
2026-05-04 23:45 39.11691 -76.58748 23904 ft 446 kts 88°
2026-05-04 23:45 39.11782 -76.54750 24333 ft 448 kts 88°
2026-05-04 23:45 39.11936 -76.50729 24752 ft 450 kts 83°
2026-05-04 23:46 39.12342 -76.46724 25170 ft 452 kts 80°
2026-05-04 23:46 39.12833 -76.42719 25576 ft 454 kts 79°
2026-05-04 23:46 39.13336 -76.38688 25979 ft 457 kts 79°
2026-05-04 23:46 39.13823 -76.34650 26365 ft 459 kts 80°
2026-05-04 23:47 39.14294 -76.30561 26759 ft 461 kts 80°
2026-05-04 23:47 39.14753 -76.26469 27129 ft 463 kts 81°
2026-05-04 23:47 39.15210 -76.22349 27489 ft 465 kts 81°
2026-05-04 23:47 39.15677 -76.18214 27835 ft 468 kts 80°
2026-05-04 23:48 39.16153 -76.14060 28173 ft 470 kts 80°
2026-05-04 23:48 39.16634 -76.09881 28508 ft 472 kts 80°
2026-05-04 23:48 39.17115 -76.05684 28846 ft 474 kts 80°
2026-05-04 23:48 39.17594 -76.01475 29166 ft 476 kts 80°
2026-05-04 23:49 39.18074 -75.97237 29473 ft 479 kts 80°
2026-05-04 23:49 39.18637 -75.93006 29750 ft 479 kts 73°
2026-05-04 23:49 39.19836 -75.89027 30090 ft 476 kts 59°
2026-05-04 23:49 39.21635 -75.85477 30492 ft 470 kts 48°
2026-05-04 23:50 39.23926 -75.82525 30861 ft 464 kts 37°
2026-05-04 23:50 39.26407 -75.79865 31195 ft 464 kts 37°
2026-05-04 23:50 39.28906 -75.77231 31498 ft 464 kts 37°
2026-05-04 23:50 39.31397 -75.74582 31825 ft 464 kts 37°
2026-05-04 23:51 39.33838 -75.71944 32200 ft 463 kts 37°
2026-05-04 23:51 39.36321 -75.69227 32552 ft 462 kts 38°
2026-05-04 23:51 39.38766 -75.66534 32889 ft 461 kts 38°
2026-05-04 23:51 39.41172 -75.63881 33205 ft 461 kts 38°
2026-05-04 23:52 39.43607 -75.61195 33542 ft 460 kts 37°
2026-05-04 23:52 39.46045 -75.58513 33876 ft 459 kts 37°
2026-05-04 23:52 39.48471 -75.55847 34156 ft 459 kts 37°
2026-05-04 23:52 39.50904 -75.53175 34386 ft 459 kts 37°
2026-05-04 23:53 39.53342 -75.50493 34619 ft 459 kts 37°
2026-05-04 23:53 39.55778 -75.47808 34859 ft 459 kts 37°
2026-05-04 23:53 39.58202 -75.45135 35094 ft 459 kts 37°
2026-05-04 23:53 39.60644 -75.42440 35315 ft 460 kts 37°
2026-05-04 23:54 39.63081 -75.39747 35539 ft 460 kts 37°
2026-05-04 23:54 39.65514 -75.37059 35771 ft 460 kts 37°
2026-05-04 23:54 39.67954 -75.34362 35991 ft 460 kts 37°
2026-05-04 23:54 39.70389 -75.31667 36192 ft 461 kts 37°
2026-05-04 23:55 39.72827 -75.28965 36417 ft 461 kts 37°
2026-05-04 23:55 39.75261 -75.26266 36636 ft 461 kts 37°
2026-05-04 23:55 39.80067 -75.20714 36891 ft 467 kts 44°
2026-05-04 23:56 39.81539 -75.18585 36926 ft 468 kts 45°
2026-05-04 23:56 39.85739 -75.12201 36905 ft 466 kts 46°
2026-05-04 23:57 39.89937 -75.05833 36911 ft 462 kts 45°
2026-05-04 23:57 39.94138 -74.99541 36915 ft 459 kts 45°
2026-05-04 23:58 39.98192 -74.93139 36917 ft 460 kts 51°
2026-05-04 23:58 40.01739 -74.86166 36926 ft 461 kts 54°
2026-05-04 23:59 40.05229 -74.79123 36922 ft 463 kts 53°
2026-05-04 23:59 40.08777 -74.72082 36922 ft 465 kts 53°
2026-05-05 00:00 40.12360 -74.65020 36923 ft 467 kts 53°
2026-05-05 00:00 40.15954 -74.57920 36926 ft 469 kts 53°
2026-05-05 00:01 40.19612 -74.50845 36912 ft 469 kts 48°
2026-05-05 00:01 40.24237 -74.44976 36921 ft 462 kts 34°
2026-05-05 00:02 40.29235 -74.39779 36915 ft 462 kts 34°
2026-05-05 00:02 40.34256 -74.34502 36920 ft 462 kts 35°
2026-05-05 00:03 40.39239 -74.29176 36898 ft 461 kts 35°
2026-05-05 00:03 40.44197 -74.23849 36902 ft 460 kts 35°
2026-05-05 00:04 40.49151 -74.18521 36896 ft 460 kts 35°
2026-05-05 00:04 40.53787 -74.12873 36887 ft 466 kts 49°
2026-05-05 00:05 40.56908 -74.05370 36912 ft 474 kts 69°
2026-05-05 00:05 40.58773 -73.97038 36923 ft 475 kts 71°
2026-05-05 00:06 40.60615 -73.88706 36920 ft 475 kts 70°
2026-05-05 00:06 40.62538 -73.80397 36919 ft 475 kts 69°
2026-05-05 00:06 40.63836 -73.76434 36893 ft 468 kts 53°
2026-05-05 00:07 40.65818 -73.73095 36937 ft 461 kts 44°
2026-05-05 00:07 40.70174 -73.66895 36925 ft 462 kts 43°
2026-05-05 00:08 40.74541 -73.60670 36918 ft 460 kts 43°
2026-05-05 00:08 40.76652 -73.57593 36903 ft 445 kts 44°
2026-05-05 00:08 40.78687 -73.54602 36908 ft 431 kts 43°
2026-05-05 00:08 40.80631 -73.51739 36906 ft 417 kts 43°
2026-05-05 00:09 40.82540 -73.48932 36904 ft 404 kts 43°
2026-05-05 00:09 40.84381 -73.46221 36905 ft 393 kts 43°
2026-05-05 00:09 40.86215 -73.43527 36932 ft 395 kts 43°
2026-05-05 00:10 40.89947 -73.38037 36933 ft 408 kts 43°
2026-05-05 00:10 40.93782 -73.32373 36929 ft 418 kts 43°
2026-05-05 00:11 40.97664 -73.26620 36931 ft 421 kts 43°
2026-05-05 00:11 41.01525 -73.20879 36885 ft 412 kts 43°
2026-05-05 00:12 41.05319 -73.15236 36906 ft 410 kts 43°
2026-05-05 00:12 41.09119 -73.09579 36907 ft 411 kts 43°
2026-05-05 00:13 41.12927 -73.03897 36907 ft 413 kts 43°
2026-05-05 00:13 41.16744 -72.98189 36907 ft 414 kts 44°
2026-05-05 00:13 41.18663 -72.95317 36550 ft 421 kts 43°
2026-05-05 00:14 41.20614 -72.92386 35800 ft 427 kts 45°
2026-05-05 00:14 41.22293 -72.89042 34980 ft 442 kts 57°
2026-05-05 00:14 41.23707 -72.85394 34266 ft 447 kts 58°
2026-05-05 00:14 41.25080 -72.81671 33493 ft 450 kts 58°
2026-05-05 00:15 41.26459 -72.77908 32508 ft 456 kts 58°
2026-05-05 00:15 41.27870 -72.74095 31461 ft 464 kts 58°
2026-05-05 00:15 41.29319 -72.70229 30502 ft 470 kts 58°
2026-05-05 00:15 41.30784 -72.66349 29804 ft 468 kts 58°
2026-05-05 00:16 41.32241 -72.62502 29214 ft 462 kts 58°
2026-05-05 00:16 41.33680 -72.58706 28652 ft 456 kts 58°
2026-05-05 00:16 41.35102 -72.54959 28042 ft 452 kts 58°
2026-05-05 00:16 41.36512 -72.51243 27410 ft 449 kts 58°
2026-05-05 00:17 41.37915 -72.47541 26771 ft 447 kts 59°
2026-05-05 00:17 41.39311 -72.43854 26156 ft 444 kts 59°
2026-05-05 00:17 41.40676 -72.40241 25590 ft 441 kts 59°
2026-05-05 00:17 41.42047 -72.36606 25039 ft 438 kts 59°
2026-05-05 00:18 41.43405 -72.32998 24472 ft 435 kts 59°
2026-05-05 00:18 41.44761 -72.29396 23919 ft 433 kts 59°
2026-05-05 00:18 41.46103 -72.25827 23372 ft 430 kts 59°
2026-05-05 00:18 41.47437 -72.22273 22768 ft 428 kts 59°
2026-05-05 00:19 41.48758 -72.18729 22189 ft 425 kts 60°
2026-05-05 00:19 41.50052 -72.15199 21619 ft 422 kts 60°
2026-05-05 00:19 41.51330 -72.11696 21063 ft 419 kts 61°
2026-05-05 00:19 41.52599 -72.08213 20509 ft 416 kts 61°
2026-05-05 00:20 41.53863 -72.04750 19923 ft 415 kts 61°
2026-05-05 00:20 41.55132 -72.01271 19292 ft 416 kts 61°
2026-05-05 00:20 41.56333 -71.97803 18990 ft 409 kts 65°
2026-05-05 00:20 41.57385 -71.94267 18699 ft 412 kts 66°
2026-05-05 00:21 41.58425 -71.90670 18442 ft 418 kts 66°
2026-05-05 00:21 41.59486 -71.87047 18140 ft 418 kts 66°
2026-05-05 00:21 41.60550 -71.83446 17802 ft 414 kts 66°
2026-05-05 00:21 41.61604 -71.79880 17515 ft 412 kts 66°
2026-05-05 00:22 41.62652 -71.76332 17203 ft 411 kts 66°
2026-05-05 00:22 41.63703 -71.72769 16914 ft 410 kts 66°
2026-05-05 00:22 41.64745 -71.69230 16639 ft 409 kts 67°
2026-05-05 00:22 41.65785 -71.65695 16359 ft 408 kts 67°
2026-05-05 00:23 41.66822 -71.62167 16078 ft 407 kts 67°
2026-05-05 00:23 41.67852 -71.58653 15800 ft 405 kts 67°
2026-05-05 00:23 41.68878 -71.55150 15527 ft 404 kts 67°
2026-05-05 00:23 41.69899 -71.51657 15237 ft 402 kts 67°
2026-05-05 00:24 41.70916 -71.48179 14963 ft 401 kts 67°
2026-05-05 00:24 41.71929 -71.44705 14701 ft 399 kts 67°
2026-05-05 00:24 41.73032 -71.41308 14425 ft 396 kts 60°
2026-05-05 00:24 41.74380 -71.38155 14333 ft 384 kts 57°
2026-05-05 00:25 41.75743 -71.35162 14246 ft 370 kts 57°
2026-05-05 00:25 41.77034 -71.32250 14163 ft 357 kts 58°
2026-05-05 00:25 41.78256 -71.29424 14066 ft 346 kts 58°
2026-05-05 00:25 41.79441 -71.26651 13802 ft 341 kts 58°
2026-05-05 00:26 41.80616 -71.23891 13411 ft 340 kts 58°
2026-05-05 00:26 41.81784 -71.21142 13048 ft 338 kts 58°
2026-05-05 00:26 41.82943 -71.18418 12723 ft 335 kts 58°
2026-05-05 00:26 41.84092 -71.15712 12389 ft 332 kts 58°
2026-05-05 00:27 41.85226 -71.13041 12154 ft 327 kts 58°
2026-05-05 00:27 41.86340 -71.10432 12012 ft 318 kts 58°
2026-05-05 00:27 41.87443 -71.07879 11732 ft 315 kts 58°
2026-05-05 00:27 41.88540 -71.05347 11429 ft 313 kts 58°
2026-05-05 00:28 41.89628 -71.02835 11221 ft 310 kts 57°
2026-05-05 00:28 41.90704 -71.00344 11012 ft 309 kts 58°
2026-05-05 00:28 41.91786 -70.97840 10826 ft 309 kts 57°
2026-05-05 00:28 41.92847 -70.95378 10643 ft 309 kts 58°
2026-05-05 00:29 41.93931 -70.92858 10457 ft 307 kts 57°
2026-05-05 00:29 41.94983 -70.90413 10275 ft 306 kts 57°
2026-05-05 00:29 41.96039 -70.87954 10073 ft 302 kts 57°
2026-05-05 00:29 41.97077 -70.85534 9885 ft 296 kts 57°
2026-05-05 00:30 41.98097 -70.83157 9692 ft 291 kts 57°
2026-05-05 00:30 41.99098 -70.80822 9508 ft 287 kts 57°
2026-05-05 00:30 42.00090 -70.78506 9322 ft 285 kts 57°
2026-05-05 00:30 42.01092 -70.76209 9161 ft 284 kts 53°
2026-05-05 00:31 42.02320 -70.74144 8982 ft 283 kts 44°
2026-05-05 00:31 42.03660 -70.72213 8819 ft 283 kts 43°
2026-05-05 00:31 42.05016 -70.70277 8645 ft 284 kts 43°
2026-05-05 00:31 42.06360 -70.68315 8479 ft 286 kts 44°
2026-05-05 00:32 42.07698 -70.66328 8302 ft 287 kts 44°
2026-05-05 00:32 42.09041 -70.64320 8130 ft 289 kts 45°
2026-05-05 00:32 42.10428 -70.62373 7940 ft 286 kts 33°
2026-05-05 00:32 42.12163 -70.61205 7691 ft 275 kts 10°
2026-05-05 00:33 42.14014 -70.60653 7448 ft 271 kts
2026-05-05 00:33 42.15855 -70.60159 7193 ft 268 kts
2026-05-05 00:33 42.17683 -70.59672 6949 ft 267 kts
2026-05-05 00:33 42.19502 -70.59181 6703 ft 267 kts
2026-05-05 00:34 42.21318 -70.58685 6451 ft 266 kts
2026-05-05 00:34 42.23131 -70.58185 6193 ft 266 kts
2026-05-05 00:34 42.24938 -70.57683 5930 ft 265 kts
2026-05-05 00:34 42.26742 -70.57180 5667 ft 264 kts
2026-05-05 00:35 42.28543 -70.56676 5418 ft 264 kts
2026-05-05 00:35 42.30340 -70.56174 5170 ft 264 kts
2026-05-05 00:35 42.32128 -70.56061 4935 ft 253 kts 340°
2026-05-05 00:35 42.33706 -70.57025 4909 ft 249 kts 318°
2026-05-05 00:36 42.34983 -70.58555 4898 ft 244 kts 312°
2026-05-05 00:36 42.36177 -70.60128 4880 ft 242 kts 311°
2026-05-05 00:36 42.37386 -70.61743 4875 ft 241 kts 311°
2026-05-05 00:36 42.38579 -70.63334 4871 ft 241 kts 311°
2026-05-05 00:37 42.39762 -70.64908 4865 ft 242 kts 311°
2026-05-05 00:37 42.40963 -70.66501 4851 ft 242 kts 311°
2026-05-05 00:37 42.42180 -70.68111 4854 ft 242 kts 311°
2026-05-05 00:37 42.43384 -70.69704 4852 ft 242 kts 311°
2026-05-05 00:38 42.44585 -70.71291 4832 ft 240 kts 311°
2026-05-05 00:38 42.45759 -70.72841 4652 ft 238 kts 311°
2026-05-05 00:38 42.46942 -70.74425 4249 ft 242 kts 309°
2026-05-05 00:38 42.48164 -70.76006 3909 ft 245 kts 313°
2026-05-05 00:39 42.49481 -70.77475 3606 ft 245 kts 315°
2026-05-05 00:39 42.50785 -70.78883 3473 ft 232 kts 315°
2026-05-05 00:39 42.52021 -70.80182 3347 ft 218 kts 315°
2026-05-05 00:39 42.53201 -70.81381 3205 ft 206 kts 316°
2026-05-05 00:40 42.54299 -70.82588 2842 ft 200 kts 300°
2026-05-05 00:40 42.54847 -70.84248 2383 ft 191 kts 277°
2026-05-05 00:40 42.55157 -70.85973 2034 ft 186 kts 275°
2026-05-05 00:40 42.55077 -70.87537 2087 ft 160 kts 240°
2026-05-05 00:41 42.54484 -70.88825 2125 ft 164 kts 235°
2026-05-05 00:41 42.53857 -70.90136 2137 ft 166 kts 236°
2026-05-05 00:41 42.53233 -70.91443 2130 ft 164 kts 235°
2026-05-05 00:41 42.52628 -70.92743 2125 ft 160 kts 236°
2026-05-05 00:42 42.52057 -70.93969 2118 ft 150 kts 236°
2026-05-05 00:42 42.51480 -70.95102 2123 ft 144 kts 223°
2026-05-05 00:42 42.50498 -70.95363 2134 ft 159 kts 179°
2026-05-05 00:42 42.49400 -70.95320 2127 ft 154 kts 192°
2026-05-05 00:43 42.48380 -70.95507 2021 ft 144 kts 195°
2026-05-05 00:43 42.47439 -70.95778 1741 ft 133 kts 199°
2026-05-05 00:43 42.46567 -70.96088 1504 ft 127 kts 201°
2026-05-05 00:43 42.45706 -70.96439 1452 ft 134 kts 202°
2026-05-05 00:44 42.44807 -70.96802 1367 ft 132 kts 200°
2026-05-05 00:44 42.44190 -70.96897 1213 ft 138 kts 188°
2026-05-05 00:44 42.43259 -70.97057 937 ft 134 kts 199°
2026-05-05 00:44 42.42304 -70.97619 1049 ft 156 kts 202°
2026-05-05 00:45 42.41356 -70.98095 1076 ft 135 kts 204°
2026-05-05 00:45 42.40499 -70.98526 768 ft 133 kts 197°
2026-05-05 00:45 42.39548 -70.99012 653 ft 155 kts 200°
2026-05-05 00:45 42.38186 -70.99688 372 ft 156 kts 200°
2026-05-05 00:46 42.37215 -71.00159 81 ft 137 kts 197°
2026-05-05 00:46 42.36645 -71.00436 28 ft 120 kts 199°
2026-05-05 00:46 42.35944 -71.00773 26 ft 94 kts 200°
2026-05-05 00:46 42.35503 -71.00986 27 ft 41 kts 199°